Tracking 29892 objects as of 21-Nov-2024
HD Live streaming from Space Station
objects crossing your sky now

STARLINK-32136

Track STARLINK-32136 now!
10-day predictions
STARLINK-32136 is classified as:


NORAD ID: 61515
Int'l Code: 2024-183G
Perigee: 453.4 km
Apogee: 455.3 km
Inclination: 53.2 °
Period: 93.5 minutes
Semi major axis: 6825 km
RCS: Unknown
Launch date: October 15, 2024
Source: United States (US)
Launch site: AIR FORCE EASTERN TEST RANGE (AFETR)
Your satellite tracking list
Your tracking list is empty




NASA's NSSDC Master Catalog

Two Line Element Set (TLE):
1 61515U 24183G   24325.64838002 -.00001958  00000-0 -38976-4 0  9995
2 61515  53.1616 195.0429 0001424  92.3067 267.8101 15.39628077  6920
Source of the keplerian elements: AFSPC